Wind_Speed
7 6 6 6 6 5 4 5 6 6 5 6 7 7 7 6 6 6 6 7 7 7 7 6 5 4 4 4 4 4 3 4 4 4 5 5 5 4 5 5 5 6 7
6 5 6 6 6 5 5 5 5 5 6 6 7 7 7 6 6 5 6 6 7 7 7 6 5 4 5 5 5 5 4 4 4 5 6 6 6 6 6 7 7 7 8
5 5 5 6 6 5 5 5 5 5 5 6 6 7 6 6 6 6 6 6 6 6 7 6 6 6 5 5 5 5 5 5 5 6 6 6 6 7 7 8 8 9 8
6 5 5 6 6 5 5 5 5 6 6 6 6 7 7 6 6 6 7 6 6 6 6 6 7 7 6 6 6 6 6 6 7 7 7 8 8 8 8 9 9 10 10
7 7 6 6 6 6 5 5 6 6 6 7 7 7 7 7 7 7 8 8 8 8 7 7 8 8 8 7 7 7 7 8 8 8 9 9 10 11 11 11 11 11 12
7 7 7 7 7 6 6 6 6 6 7 7 7 7 8 8 8 9 9 9 9 8 8 8 8 9 9 9 8 8 9 9 9 9 10 11 12 13 13 13 13 13 14
7 8 8 8 9 8 8 8 7 7 7 8 9 9 9 9 9 9 10 10 9 9 9 9 9 10 10 10 10 10 11 11 11 12 12 12 13 14 14 15 15 15 16
8 8 9 9 10 10 10 10 10 9 9 9 10 10 10 10 10 10 11 11 11 11 11 11 11 12 12 12 12 12 13 13 13 13 14 14 15 16 16 17 17 17 17
9 9 10 10 10 11 11 11 11 11 11 12 12 11 11 11 12 12 12 12 12 13 13 13 13 13 13 13 13 13 14 15 15 16 16 16 17 17 17 18 18 19 19
10 10 10 11 11 11 12 13 13 13 13 14 14 13 13 13 13 13 13 13 13 14 15 15 14 14 14 14 15 16 16 17 17 18 18 18 18 19 19 19 20 20 20
11 12 12 12 12 13 13 13 13 14 14 15 15 15 15 15 15 16 15 16 16 15 16 16 16 16 16 16 17 18 18 19 19 19 20 20 20 21 20 20 20 21 22
13 13 13 13 14 14 14 14 15 15 15 15 16 16 16 16 16 17 17 18 18 18 18 17 17 18 18 19 19 20 21 21 21 21 22 22 21 22 22 21 22 23 23
13 13 14 14 15 15 15 16 16 16 16 17 17 17 17 17 18 18 18 18 18 19 19 19 19 20 21 21 22 22 23 23 23 23 24 24 24 24 23 23 24 25 25
14 14 15 16 16 16 17 17 17 18 18 18 18 18 19 19 19 19 20 21 21 21 21 21 22 22 23 23 24 24 25 25 25 25 25 25 25 26 26 26 26 26 27
15 16 17 17 17 18 18 19 19 20 20 19 19 20 21 21 22 22 22 23 23 23 23 23 24 24 25 26 26 26 26 27 27 27 27 27 28 29 29 28 28 28 28
17 17 18 18 18 19 20 20 21 22 22 22 22 23 23 24 24 24 24 24 23 24 25 26 26 27 27 28 28 28 28 29 29 29 29 29 29 29 30 29 29 28 28
19 19 20 20 20 20 21 21 23 23 24 24 25 25 25 25 26 25 25 25 25 26 26 27 27 28 28 29 29 30 30 31 31 30 30 30 30 30 30 30 29 29 29
20 21 22 23 22 23 23 24 25 25 25 25 25 26 26 26 26 27 26 27 27 28 28 28 29 29 29 30 30 31 31 31 31 31 30 30 30 30 30 30 30 30 30
22 22 23 23 23 24 25 26 26 26 27 27 27 28 28 28 28 28 28 29 29 28 29 29 30 30 30 30 31 32 32 32 32 32 31 31 30 30 31 30 30 29 29
24 24 25 25 25 26 26 26 26 27 27 27 27 28 28 29 29 29 30 30 30 30 31 31 30 30 31 31 32 32 32 32 32 31 31 31 30 31 30 30 29 29 29
25 26 26 26 27 27 26 26 26 26 27 27 28 28 27 28 29 29 30 31 31 31 32 31 31 31 31 31 31 32 32 32 31 31 31 31 31 30 30 29 29 29 28
27 27 27 27 27 27 27 27 27 27 27 28 29 29 29 29 29 30 30 30 30 30 31 30 30 30 30 31 31 30 31 31 30 30 30 30 30 30 29 29 28 28 28
28 28 28 28 28 28 28 28 28 28 28 29 30 30 30 30 30 30 30 30 30 30 30 29 29 30 30 30 30 29 29 29 29 29 29 29 28 28 28 28 28 28 28
29 29 29 29 29 29 29 29 30 29 29 30 31 31 32 32 31 30 30 30 29 29 29 29 29 29 29 29 28 29 29 29 28 28 28 28 28 27 26 26 27 27 27
30 30 30 30 30 30 31 31 31 31 31 31 32 32 32 32 32 31 30 30 29 29 29 29 28 28 28 29 29 29 28 28 28 27 28 28 27 27 27 27 26 26 26
31 31 32 31 31 31 32 32 32 31 32 32 31 31 31 31 31 30 30 29 29 29 29 29 29 28 29 29 29 28 27 27 27 27 27 27 27 27 27 27 27 26 25
Wind_Direction
20 23 25 24 22 25 29 28 22 24 30 32 32 31 34 37 34 31 29 28 26 26 24 22 19 20 14 5 0 357 349 352 353 349 345 342 340 330 317 314 313 309 309
11 12 12 13 16 26 34 31 28 26 27 27 26 26 27 27 22 17 14 16 18 18 18 17 14 10 5 357 347 344 345 343 338 339 335 332 330 322 315 312 312 312 311
358 360 360 3 8 18 26 26 20 19 17 16 17 16 17 14 6 2 357 357 0 2 3 4 2 0 356 349 345 339 335 325 320 325 323 322 324 320 316 312 312 312 309
347 348 349 351 355 360 7 10 8 5 360 357 359 1 2 2 359 351 345 343 341 339 344 346 344 340 341 340 335 330 324 317 315 315 314 311 311 310 308 305 304 304 302
330 332 334 337 339 342 346 349 349 350 347 347 346 344 346 347 343 337 341 343 336 334 333 333 336 336 336 330 325 319 316 313 312 313 312 309 307 306 305 304 301 299 299
318 326 324 324 326 328 329 331 334 335 335 334 334 333 333 333 334 330 331 331 330 328 328 328 327 327 325 321 318 312 311 312 311 311 309 307 307 304 301 299 299 298 298
317 321 321 318 317 319 321 321 320 320 321 323 322 323 324 325 327 326 324 324 322 320 322 323 322 318 315 315 314 312 311 310 310 309 306 302 302 303 299 295 296 295 294
308 313 314 313 312 313 315 317 317 312 310 312 313 314 316 318 319 319 319 318 318 316 316 318 318 315 311 310 310 307 307 306 306 306 304 301 299 299 299 295 294 294 292
304 305 307 308 308 309 310 309 313 310 309 311 311 308 309 311 312 312 315 317 319 318 315 317 317 314 313 312 310 311 308 305 304 303 302 301 300 299 299 295 292 291 291
296 297 298 300 301 302 305 307 309 309 309 309 310 306 302 305 307 307 309 311 312 313 313 312 315 315 312 311 310 308 308 306 304 304 303 301 300 298 295 293 290 289 289
289 290 289 291 292 295 299 303 305 306 305 304 304 305 302 303 308 307 306 307 306 308 310 308 309 311 309 306 306 306 304 302 301 302 302 300 297 296 295 293 290 289 289
286 285 284 286 287 289 293 295 297 299 300 301 300 301 302 302 305 308 307 305 303 303 304 305 304 306 305 304 303 303 303 300 299 300 300 299 298 297 295 293 292 290 288
287 284 284 284 285 289 291 292 292 293 296 297 298 299 298 298 302 304 304 305 304 302 302 302 301 300 301 301 301 300 300 299 300 300 299 298 296 296 293 293 296 296 293
288 287 286 285 285 287 291 292 292 292 293 295 296 298 298 299 300 300 300 301 301 300 300 299 300 299 299 299 298 299 299 297 296 297 297 296 295 295 294 294 295 296 296
287 288 286 286 288 287 288 290 291 292 294 294 296 297 299 299 299 299 299 299 299 298 298 298 298 297 297 297 297 297 297 297 296 295 294 293 294 295 295 295 294 293 294
288 290 289 288 288 288 288 290 291 292 292 292 294 296 297 297 297 297 297 298 298 297 297 297 297 297 297 297 297 297 297 296 295 295 295 295 295 295 295 294 294 293 293
286 289 290 290 287 286 285 286 289 290 291 292 294 295 296 296 297 297 297 297 296 296 296 296 297 297 296 296 296 296 295 294 294 294 294 294 294 294 294 292 291 291 291
284 286 287 288 286 284 283 284 286 288 291 291 292 293 296 296 295 294 294 295 295 295 296 296 296 296 295 295 295 295 295 295 294 292 293 293 293 294 294 293 290 291 292
284 286 288 286 285 285 285 285 287 289 291 292 291 293 293 293 294 293 293 294 294 296 296 296 296 296 296 295 295 295 294 294 293 292 292 293 294 294 295 294 291 291 292
282 284 288 289 288 288 287 288 289 289 291 293 294 295 294 294 295 295 294 294 293 295 295 294 295 296 295 295 294 294 294 294 293 292 292 292 292 293 294 294 292 291 291
281 284 286 288 290 288 288 289 290 289 291 293 294 296 296 296 294 294 295 295 294 295 296 295 294 294 294 294 293 293 293 293 293 292 291 292 292 293 294 294 292 292 293
281 282 283 284 287 287 287 288 289 290 291 292 293 295 297 296 295 295 294 294 295 295 296 296 294 293 292 293 293 293 293 293 293 292 291 294 293 292 292 293 292 292 292
280 281 281 283 285 286 287 288 289 290 291 292 293 294 294 295 296 296 295 295 295 296 296 296 296 293 292 291 292 293 293 293 295 295 294 295 295 293 292 292 292 292 292
281 282 283 284 285 285 285 287 288 289 291 291 293 294 293 293 295 295 295 294 295 296 297 296 296 294 293 293 292 292 292 293 294 294 294 295 295 295 294 293 292 291 291
283 284 285 285 285 284 285 286 287 288 289 292 293 294 294 293 293 293 294 294 294 295 297 298 297 296 295 294 293 292 291 292 292 293 294 295 296 296 295 294 294 292 290
284 285 285 285 285 285 285 286 287 289 290 292 293 294 294 293 293 293 293 295 295 295 295 295 295 296 297 295 293 291 290 292 293 293 294 296 297 298 298 296 295 293 293
Height
5911 5910 5908 5906 5905 5903 5902 5901 5899 5898 5897 5895 5894 5893 5892 5891 5890 5888 5887 5886 5885 5883 5882 5881 5880 5879 5879 5878 5876 5875 5875 5874 5873 5872 5871 5870 5869 5868 5868 5867 5866 5865 5864
5912 5910 5909 5907 5905 5904 5903 5901 5900 5899 5897 5896 5895 5893 5892 5891 5890 5889 5888 5887 5885 5884 5883 5882 5881 5880 5879 5877 5876 5875 5874 5873 5873 5872 5871 5870 5869 5867 5866 5865 5864 5863 5862
5912 5911 5909 5908 5906 5904 5903 5902 5901 5899 5898 5897 5895 5894 5893 5892 5891 5890 5888 5887 5886 5884 5883 5882 5880 5879 5878 5877 5876 5875 5874 5873 5872 5871 5870 5869 5868 5867 5866 5864 5863 5862 5860
5913 5911 5910 5908 5906 5905 5904 5902 5901 5900 5898 5897 5896 5894 5893 5892 5891 5890 5888 5887 5886 5884 5883 5882 5880 5879 5877 5876 5875 5874 5873 5872 5871 5870 5869 5868 5867 5865 5864 5863 5861 5860 5858
5912 5911 5910 5908 5907 5905 5904 5902 5901 5900 5899 5897 5896 5895 5893 5892 5891 5889 5888 5887 5885 5884 5882 5881 5879 5878 5877 5875 5874 5873 5872 5871 5870 5869 5867 5866 5865 5863 5862 5860 5859 5857 5856
5912 5910 5909 5908 5906 5905 5903 5902 5901 5900 5898 5897 5896 5894 5893 5891 5890 5889 5887 5886 5884 5883 5881 5880 5878 5877 5875 5874 5873 5871 5870 5869 5868 5866 5865 5864 5862 5860 5859 5857 5856 5854 5852
5911 5910 5908 5907 5906 5904 5903 5901 5900 5899 5897 5896 5895 5893 5892 5890 5889 5888 5886 5885 5883 5881 5880 5878 5877 5875 5874 5872 5871 5869 5868 5867 5865 5863 5862 5860 5859 5857 5855 5854 5852 5850 5849
5909 5908 5907 5905 5904 5903 5901 5900 5898 5897 5896 5895 5893 5892 5891 5889 5888 5886 5884 5883 5881 5880 5878 5876 5875 5873 5871 5870 5868 5867 5865 5863 5862 5860 5858 5857 5855 5853 5851 5849 5848 5846 5844
5908 5907 5905 5904 5903 5901 5900 5898 5897 5896 5894 5893 5892 5890 5889 5887 5886 5884 5882 5881 5879 5877 5876 5874 5872 5871 5869 5867 5865 5864 5862 5860 5858 5856 5854 5852 5850 5848 5846 5844 5843 5841 5839
5906 5904 5903 5902 5901 5899 5898 5897 5895 5894 5892 5891 5889 5888 5886 5885 5883 5881 5880 5878 5876 5875 5873 5871 5869 5868 5866 5864 5862 5860 5858 5856 5854 5852 5850 5848 5846 5844 5841 5839 5837 5836 5834
5903 5902 5901 5900 5899 5897 5896 5894 5893 5891 5890 5888 5887 5885 5883 5882 5880 5878 5877 5875 5873 5871 5870 5868 5866 5864 5862 5860 5858 5856 5854 5852 5849 5847 5845 5843 5841 5839 5836 5834 5832 5830 5828
5900 5899 5898 5897 5896 5895 5893 5892 5890 5889 5887 5886 5884 5882 5880 5878 5877 5875 5873 5871 5869 5868 5866 5864 5862 5860 5858 5856 5854 5851 5849 5847 5845 5843 5840 5838 5836 5833 5831 5828 5826 5823 5821
5896 5895 5894 5893 5892 5891 5890 5889 5887 5885 5884 5882 5880 5879 5877 5875 5873 5872 5870 5868 5865 5863 5861 5859 5858 5855 5853 5851 5849 5847 5844 5842 5840 5837 5835 5832 5830 5827 5825 5822 5819 5817 5814
5893 5892 5891 5889 5888 5887 5886 5885 5883 5881 5879 5878 5876 5875 5873 5871 5869 5867 5865 5863 5861 5859 5857 5854 5852 5850 5848 5846 5843 5841 5838 5836 5834 5831 5828 5826 5823 5821 5818 5815 5813 5810 5807
5889 5888 5887 5885 5884 5883 5882 5880 5879 5877 5875 5873 5871 5870 5868 5866 5864 5862 5860 5858 5856 5854 5851 5849 5847 5844 5842 5839 5837 5834 5832 5829 5827 5824 5821 5819 5816 5814 5811 5808 5805 5803 5800
5885 5884 5882 5881 5879 5878 5876 5875 5873 5872 5870 5868 5866 5864 5863 5860 5858 5856 5854 5852 5850 5848 5845 5843 5841 5838 5835 5832 5830 5827 5824 5822 5819 5817 5814 5811 5809 5806 5804 5801 5798 5795 5793
5881 5879 5878 5876 5874 5873 5871 5869 5868 5866 5864 5862 5860 5858 5856 5854 5852 5850 5847 5845 5843 5841 5839 5836 5833 5831 5828 5825 5822 5820 5817 5814 5811 5809 5806 5803 5801 5798 5795 5793 5790 5788 5785
5876 5874 5872 5870 5869 5867 5865 5863 5861 5859 5858 5856 5853 5852 5849 5847 5845 5842 5840 5838 5836 5834 5831 5829 5826 5823 5820 5817 5815 5812 5809 5806 5803 5800 5798 5795 5792 5789 5787 5784 5782 5779 5777
5869 5868 5866 5864 5862 5860 5858 5857 5855 5853 5851 5849 5847 5844 5842 5840 5837 5835 5833 5831 5829 5826 5823 5821 5818 5815 5812 5809 5806 5803 5800 5797 5794 5792 5789 5786 5784 5781 5778 5776 5773 5770 5768
5863 5861 5859 5857 5855 5853 5851 5850 5848 5846 5844 5842 5839 5837 5835 5832 5830 5828 5825 5823 5820 5818 5815 5812 5810 5807 5804 5801 5798 5795 5792 5789 5786 5783 5780 5778 5775 5773 5770 5767 5764 5762 5759
5855 5854 5852 5850 5848 5846 5844 5842 5840 5839 5837 5835 5832 5830 5827 5825 5822 5820 5817 5815 5812 5809 5807 5804 5801 5798 5795 5792 5789 5786 5783 5780 5777 5774 5771 5769 5766 5764 5761 5758 5755 5753 5750
5848 5846 5845 5843 5841 5839 5837 5835 5833 5831 5829 5827 5825 5822 5820 5817 5814 5812 5809 5806 5804 5801 5799 5796 5793 5790 5787 5784 5780 5777 5774 5771 5769 5766 5763 5760 5756 5754 5752 5750 5747 5745 5742
5840 5838 5837 5835 5833 5831 5829 5828 5826 5823 5821 5819 5817 5815 5812 5809 5806 5804 5801 5798 5796 5793 5790 5787 5784 5781 5778 5775 5772 5769 5766 5763 5760 5758 5755 5752 5749 5746 5743 5741 5739 5736 5734
5832 5830 5828 5826 5825 5823 5821 5819 5818 5816 5813 5811 5809 5806 5803 5801 5798 5795 5793 5790 5787 5785 5782 5778 5775 5772 5769 5766 5763 5760 5758 5755 5752 5750 5747 5744 5741 5738 5735 5733 5731 5729 5726
5823 5821 5819 5818 5816 5814 5812 5811 5809 5807 5805 5803 5800 5798 5795 5792 5790 5787 5784 5782 5779 5776 5773 5770 5767 5764 5761 5758 5755 5752 5749 5747 5744 5742 5739 5736 5733 5730 5728 5725 5723 5721 5718
5814 5812 5811 5809 5807 5805 5803 5802 5800 5798 5796 5794 5792 5789 5786 5783 5781 5778 5775 5773 5770 5767 5764 5761 5758 5755 5752 5749 5746 5743 5741 5739 5736 5734 5731 5729 5726 5723 5720 5718 5715 5713 5710